Regional Weather Roundup
Issued by NWS Charleston, SC

Current Version | Previous Version | Graphics & Text | Print | Product List | Glossary On
Versions: 1 2 3 4 5 6 7 8 9 10 11 12 13 14 15 16 17 18 19 20 21 22 23 24 25 26 27 28 29 30 31 32 33 34 35 36 37 38 39 40 41 42 43 44 45 46 47 48 49 50
800 ASUS42 KCHS 170312 RWRCHS Regional Weather Roundup National Weather Service Charleston SC 1000 PM EST SAT DEC 16 2017 NOTE: "fair" indicates few or no clouds below 12,000 feet with no significant weather and/or obstructions to visibility. Not all stations are quality controlled. Use data with caution, especially dewpoint observations. SCZ027-030-031-034>040-042>050-170400- ...Southeast South Carolina... CITY SKY/WX TMP DP RH WIND PRES REMARKS N Charleston CLOUDY 39 36 89 CALM 30.30F Waterfront Prk N/A 46 42 86 CALM 30.16R Mount Pleasant FAIR 36 36 100 CALM 30.31S FOG Johns Island FAIR 36 34 93 CALM 30.31S Pinopolis N/A 43 37 81 VRB3 30.23S Moncks Corner FAIR 34 32 93 CALM 30.30S Summerville FAIR 34 34 100 CALM 30.31S Beaufort MCAS CLEAR 38 36 92 SW5 30.31S WCI 34 Beaufort Arpt FAIR 39 37 93 CALM 30.31R Hilton Head Is CLEAR 39 37 93 CALM 30.32R Walterboro CLOUDY 34 32 93 CALM 30.31S Allendale FAIR 34 32 93 CALM 30.30R ...Southern Midlands and Pee Dee... CITY SKY/WX TMP DP RH WIND PRES REMARKS Georgetown FAIR 32 32 100 CALM 30.32S Kingstree FAIR 32 32 100 CALM 30.30S Orangeburg CLOUDY 35 31 85 CALM 30.30S Barnwell N/A 34 30 86 CALM 30.30R Aiken FAIR 32 28 86 CALM 30.32R Manning FAIR 32 30 93 MISG 30.31R Columbia CLOUDY 34 31 88 S3 30.29R Sumter CLOUDY 36 30 77 CALM 30.27R Florence CLOUDY 34 30 85 SE3 30.29S Myrtle Beach CLOUDY 38 34 85 CALM 30.32R N Myrtle Beach CLEAR 36 34 92 CALM 30.30R $$ GAZ063-065-086>088-099>101-113>116-118-119-134>141-150-170400- ...Southeast Georgia... CITY SKY/WX TMP DP RH WIND PRES REMARKS Savannah Arpt CLOUDY 39 36 89 CALM 30.32R Hunter AAF CLEAR 38 35 87 CALM N/A Fort Stewart CLOUDY 38 35 91 CALM N/A Statesboro CLOUDY 34 34 98 CALM 30.31R Sylvania CLOUDY 35 34 99 CALM 30.32R Claxton FAIR 35 34 96 CALM 30.31S ...CSRA, Central and far Southeast Georgia... CITY SKY/WX TMP DP RH WIND PRES REMARKS Thomson CLOUDY 30 28 92 CALM 30.34S Augusta-Bush CLOUDY 32 29 88 CALM 30.30R Augusta-Daniel CLOUDY 44 28 53 CALM 30.30R Swainsboro FAIR 34 34 100 CALM 30.32R Vidalia CLOUDY 41 34 75 CALM 30.30S Eastman FAIR 36 29 78 CALM 30.33R Hazlehurst FAIR 40 32 73 CALM 30.28F Alma CLOUDY 38 35 89 CALM 30.29S Waycross CLOUDY 41 36 81 CALM 30.30S Jesup NOT AVBL Baxley FAIR 36 36 100 CALM 30.29F Brunswick CLEAR 39 37 93 CALM 30.32R FOG Saint Simons CLEAR 44 41 89 CALM 30.30S $$ SCZ027-028-034-036>038-045-046-048>050-GAZ119-141-170400- ...Lake and Supplemental Coastal Observations... STATION/POSITION TIME TEMP WIND PRES WAVE SWELL AIR SEA DIR/SP/G HT/PER HT/PER/DIR (UTC) (F) (DEG/KT/KT) (MB) (FT/S) (FT/S/D) Winyah Bay 0145 38 310/ 1 1026.0 Lake Murray 0220 44 290/ 3/ 3 1024.7R ACE Basin NERRS 0145 39 CALM 1026.0 Fort Pulaski 0242 47 53 310/ 1/ 2 1026.6R Sapelo Island 0200 40 30/ 3 1026.0 $$ ANZ835-935-AMZ111-154-330-350-352-354-370-450-454-472-170400- ...C-MAN and Buoy Observations... STATION/POSITION TIME TEMP WIND PRES WAVE SWELL AIR SEA DIR/SP/G HT/PER HT/PER/DIR (UTC) (F) (DEG/KT/KT) (MB) (FT/S) (FT/S/D) Buoy 41004 0250 58 72 210/ 4/ 8 1025.6S 2/ 6 2/ 70/ 6 Buoy 41008 0250 54 58 10/ 4/ 4 1026.1R 1/11 2/ 90/11 Folly Beach CMAN 0200 46 270/ 3/ 4 1026.6R Capers Nearshore 0208 47 55 220/ 2/ 4 1025.8R STATION/POSITION TIME TEMP WIND PRES WAVE SWELL AIR SEA DIR/SP/G HT/PER HT/PER/DIR (UTC) (F) (DEG/KT/KT) (MB) (FT/S) (FT/S/D) 5E St. Marys GA 0230 62 N/A 1/11 Frying Pan Buoy 0250 54 250/ 8/ 14 1025.7R 2/ 8 2/ 80/ 8 Buoy 41025 0250 52 280/ 14/ 17 1025.3R 3/ 7 2/ 50/ 7 Cape Lookout NC 0200 270/ 7/ 9 1025.5R Buoy 41002 0250 62 74 340/ 8/ 10 1025.4R 5/ 6 5/340/ 6 Buoy 41010 NOT AVBL St Augustine FL 0300 59 63 20/ 6/ 7 1025.9R $$

USA.gov is the U.S. government's official web portal to all federal, state and local government web resources and services.